|
NORAD ID: 27033 Int'l Code: 1989-006N
Perigee: 560.7 km
Apogee: 35,156.7 km
Inclination: 8.0 °
Period: 625.6 minutes
Semi major axis: 24229 km
Launch date: January 27, 1989
Source: France (FR)
Note: This is SATELLITE DEBRIS
Two Line Element Set (TLE):
1 27033U 89006N 13141.00756748 .00000326 00000-0 36326-2 0 8302
2 27033 008.0298 108.5838 7139190 084.7341 356.9842 02.30187282 99046
Source:
NASA's NSSDC Master Catalog entry for ARIANE 2 DEB
|